Regional Weather Roundup
Issued by NWS Cleveland, OH

Home | Current Version | Previous Version | Graphics & Text | Print | Product List | Glossary On
Versions: 1 2 3 4 5 6 7 8 9 10 11 12 13 14 15 16 17 18 19 20 21 22 23 24 25 26 27 28 29 30 31 32 33 34 35 36 37 38 39 40 41 42 43 44 45 46 47 48 49 50
000
ASUS41 KCLE 282310
RWRCLE
OHIO REGIONAL WEATHER ROUNDUP
NATIONAL WEATHER SERVICE CLEVELAND, OH
600 PM EST SAT FEB 28 2015

NOTE: "FAIR" INDICATES FEW OR NO CLOUDS BELOW 12,000 FEET WITH NO
SIGNIFICANT WEATHER AND/OR OBSTRUCTIONS TO VISIBILITY.

OHZ001>008-015>018-024>027-034-035-043-044-010000-
   NORTHWEST OHIO

CITY           SKY/WX    TMP DP  RH WIND       PRES   REMARKS
DEFIANCE       CLEAR     18   2  49 E7        30.62F WCI   9
FINDLAY        MOCLDY    19   1  45 E7        30.60F WCI  10
TOLEDO EXPRESS CLEAR     17  -1  45 SE3       30.62F
TOLEDO EXEC    MOCLDY    18   2  49 E7        30.64F WCI   9
LIMA           PTCLDY    19   5  54 E7        30.58F WCI  10
$$

OHZ009>014-019>023-028>033-038-089-010000-
   NORTHEAST OHIO

CITY           SKY/WX    TMP DP  RH WIND       PRES   REMARKS
CLE-HOPKINS    PTCLDY    17   3  54 NE9       30.66F WCI   6
CLE-LAKEFRONT  CLEAR     14   6  70 NE8       30.65F WCI   3
CUY CO. ARPT   PTCLDY    19   7  58 NE9       30.64F WCI   9
LORAIN-ELYRIA  CLEAR     18   4  54 NE3       30.63F
ASHTABULA      CLEAR     20  -6  31 SE3       30.64F
AKRON-CANTON   CLEAR     21  -1  38 E8        30.60F WCI  11
WOOSTER        CLEAR     17   1  49 CALM      30.60F
MANSFIELD      CLEAR     19   1  45 E8        30.57F WCI   9
YOUNGSTOWN     PTCLDY    20  -4  34 E7        30.61F WCI  11
$$

OHZ042-051>053-060>062-070>072-077>081-010000-
  SOUTHWEST OHIO

CITY           SKY/WX    TMP DP  RH WIND       PRES   REMARKS
CINC-COVINGTON CLOUDY    28  12  51 E8        30.55S WCI  20
CINC-LUNKEN    CLOUDY    27  12  53 NE7       30.60S WCI  19
HAMILTON       CLOUDY    27  10  49 E9        30.59F WCI  18
DAYTON         MOCLDY    23   8  52 SE8       30.58S WCI  14
WRIGHT-PAT AFB CLOUDY    23   6  48 E8        30.59S WCI  13
DAYTON GENERAL CLOUDY    22   8  55 E7        30.56F WCI  13
WILMINGTON     CLOUDY    21   8  57 E6        30.56F WCI  13
$$

OHZ036-037-039>041-045>050-054>059-063>069-073>076-082>088-010000-
  CENTRAL AND SOUTHEAST OHIO

CITY           SKY/WX    TMP DP  RH WIND       PRES   REMARKS
COLUMBUS       MOCLDY    25   1  35 E7        30.59F WCI  17
OSU AIRPORT    CLEAR     24   2  38 SE7       30.58F WCI  16
BOLTON FIELD   CLEAR     25   5  42 E6        30.59F WCI  18
RICKENBACK AFB CLEAR     24   6  46 E5        30.59F WCI  19
NEWARK         CLEAR     26   3  37 E6        30.58F WCI  19
MARION         CLEAR     19   2  47 CALM      30.59F
LANCASTER      MOCLDY    23  10  57 CALM      30.60S
ZANESVILLE     PTCLDY    27   1  32 E8        30.59F WCI  19
NEW PHILLY     CLEAR     27   0  31 SE6       30.62F WCI  20
$$



USA.gov is the U.S. government's official web portal to all federal, state and local government web resources and services.